{"data":{"norad_id":56018,"intl_designator":"2023-042AJ","name":"STARLINK-5945","alt_names":[],"object_type":"PAYLOAD","status":"ACTIVE","operator":null,"country":"US","launch_date":"2023-03-24","launch_site_code":"AFETR","launch_vehicle":null,"mission":null,"orbit_class":"UNKNOWN","rcs_meters":null,"size_class":null,"mass_kg":null,"dimensions":null,"purposes":["comms"],"wikipedia_slug":null,"has_3d_model":false,"image_url":null,"decayed_at":null,"tle_current":{"epoch":"2026-09-20T19:27:26.652960Z","epoch_age_seconds":79349,"freshness":"FRESH","line1":"1 56018U 23042AJ  26263.81072515  .00000249  00000+0  18570-4 0  9998","line2":"2 56018  43.0038  23.5467 0001694 267.7177  92.3481 15.27574961192875","mean_motion":15.27574961,"eccentricity":0.0001694,"inclination_deg":43.0038,"raan_deg":23.5467,"arg_perigee_deg":267.7177,"mean_anomaly_deg":92.3481,"bstar":1.857e-5,"rev_number":19287,"period_min":94.267059670665,"perigee_km":481.90189717922,"apogee_km":484.22647214058,"semimajor_km":6861.2011846599,"source":"CELESTRAK","updated_at":"2026-09-21T09:00:33.355891Z"}}}